Regional Weather Roundup
Issued by NWS

Home | Current Version | Previous Version | Text Only | Print | Product List | Glossary Off
Versions: 1 2 3 4 5 6 7 8 9 10 11 12 13 14 15 16 17 18 19 20 21 22 23 24 25 26 27 28 29 30 31 32 33 34 35 36 37 38 39 40 41 42 43 44 45 46 47 48 49 50

000
ASUS43 KLOT 200508
RWRIL

ILLINOIS REGIONAL WEATHER ROUNDUP
NATIONAL WEATHER SERVICE CHICAGO/ROMEOVILLE IL
1200 AM CDT WED SEP 20 2017

NOTE: "FAIR" INDICATES FEW OR NO CLOUDS BELOW 12,000 FEET WITH NO
SIGNIFICANT WEATHER AND/OR OBSTRUCTIONS TO VISIBILITY.

* THESE STATIONS ARE NOT UNDER NWS QUALITY CONTROL. THEY ALSO MAY NOT
  REPORT WEATHER SUCH AS PRECIPITATION OR FOG.

ILZ001-002-007-009-015-016-024-200600-
NORTHWEST ILLINOIS

CITY           SKY/WX    TMP DP  RH WIND       PRES   REMARKS
MOLINE         CLEAR     67  62  84 E7        29.85F
STERLING*        N/A     64  63  96 E6        29.89F
SAVANNA*       CLEAR     66  64  93 SE3       29.88S
$$

ILZ003-004-008-010-011-017-018-200600-
NORTH CENTRAL ILLINOIS

CITY           SKY/WX    TMP DP  RH WIND       PRES   REMARKS
ROCKFORD       CLEAR     64  61  90 SE8       29.92S
FREEPORT*      CLEAR     63  61  96 E6        29.92S
ROCHELLE*      CLEAR     63  62  97 SE6       29.92S FOG
DE KALB*       CLEAR     62  61  97 E7        29.93S FOG
PERU*          CLEAR     66  63  90 E9        29.91S
$$

ILZ005-006-012>014-019>023-200600-
NORTHEAST ILLINOIS

CITY           SKY/WX    TMP DP  RH WIND       PRES   REMARKS
CHICAGO-OHARE  CLEAR     67  62  84 E6        29.92F
CHICAGO-MIDWAY CLEAR     68  64  87 CALM      29.92F
AURORA         CLEAR     65  62  90 E6        29.93S
LANSING*       CLEAR     62  62 100 CALM      29.94S FOG
JOLIET*        CLEAR     67  65  91 E5        29.92F
WAUKEGAN       PTCLDY    62  61  96 CALM      29.92F FOG
DUPAGE AIRPORT CLEAR     64  62  93 E5        29.92F FOG
KANKAKEE*      CLEAR     63  62  97 CALM      29.93S
WHEELING       CLEAR     64  63  96 CALM      29.94S
MORRIS*        CLEAR     64  62  94 CALM      29.92R FOG
ROMEOVILLE*    CLEAR     64  62  94 E6        29.92F FOG
NORTHERLY ISL    N/A     67  64  90 E3          N/A
$$

LMZ740>746-200600-
SOUTHERN LAKE MICHIGAN

STATION/POSITION SKY/WX   TEMP    WIND        PRES    VSBY  WAVE
                          AIR SEA DIR/SP/G                  HT/PER
                          (F)     (DEG/KT/KT) (MB)    (MI)  (FT/S)
SOUTHERN BUOY              69 69   70/ 10/ 10 1013.7          1
WILMETTE HARBOR            69 69  120/  6/  8   N/A           1/ 3
HARRISON CRIB              69     130/  6/  7   N/A
CALUMET HARBOR             68      90/  5/  6 1012.9F
BURNS HARBOR               66      80/  2/  4 1013.9F
MICHIGAN CITY              65     120/  4/  5   N/A
MICHIGAN CITY 6N           67 69  140/  4/  6   N/A           1/ 3
ST. JOSEPH                 67 69  150/  6/  6 1013.6          1
$$

ILZ025>027-034>036-040-047-049-050-058-095>099-200600-
WEST-CENTRAL ILLINOIS

CITY           SKY/WX    TMP DP  RH WIND       PRES   REMARKS
QUINCY         CLEAR     72  65  78 SE8       29.83F
GALESBURG*     CLEAR     68  64  86 E6        29.87S
MACOMB*        CLEAR     68  65  90 SE6       29.87F
JACKSONVILLE*  CLEAR     72  65  77 SE7       29.86F
PITTSFIELD*    CLEAR     71  66  86 SE3       29.86S
$$

ILZ028>032-037-038-041>044-048-051>054-059>061-200600-
CENTRAL ILLINOIS

CITY           SKY/WX    TMP DP  RH WIND       PRES   REMARKS
PONTIAC        CLEAR     65  65  97 CALM      29.92S FOG
BLOOMINGTON    CLEAR     68  64  87 SE9       29.92S
DECATUR        CLEAR     69  65  86 SE7       29.91S
PEORIA         CLEAR     72  64  76 SE6       29.88F
LACON*         CLEAR     65  62  91 CALM      29.89S
LINCOLN*       CLEAR     68  65  91 SE5       29.90S
SPRINGFIELD    CLEAR     72  66  81 SE8       29.88F
TAYLORVILLE    CLEAR     69  65  88 SE5       29.90S
$$

ILZ033-039-045-046-055>057-062-063-200600-
EAST-CENTRAL ILLINOIS

CITY           SKY/WX    TMP DP  RH WIND       PRES   REMARKS
CHAMPAIGN      CLEAR     66  62  87 E5        29.92F
RANTOUL*       CLEAR     67  65  93 CALM      29.92F
MATTOON        CLEAR     68  67  96 SE6       29.91S
PARIS*         CLEAR     65  64  97 E3        29.93S FOG
$$

ILZ079-100>102-200600-
SOUTHWEST ILLINOIS

CITY           SKY/WX    TMP DP  RH WIND       PRES   REMARKS
ALTON          CLEAR     70  67  90 SE6       29.89S
BELLEVILLE     CLEAR     71  65  79 CALM      29.91S
CAHOKIA*       CLEAR     76  67  73 SE7       29.88S
SPARTA*        CLEAR     72  68  87 SE3       29.91S
$$

ILZ064>066-069>071-074>076-080>082-084>086-088>090-092>094-200600-
SOUTH-CENTRAL ILLINOIS

CITY           SKY/WX    TMP DP  RH WIND       PRES   REMARKS
CARBONDALE     CLEAR     71  70  96 S5        29.90S
CAIRO*         CLEAR     70  70  99 CALM      29.91R
EFFINGHAM*     CLEAR     69  67  94 SE3       29.93S
MARION         CLEAR     75  73  94 CALM      29.92S
MT. VERNON       N/A     68  67  96 CALM      29.91
CENTRALIA*     CLEAR     73  68  85 SE5       29.90S
SALEM*         CLEAR     74  66  75 CALM      29.91S
METROPOLIS*    CLEAR     71  70  97 CALM      29.93S FOG
$$

ILZ067-068-072-073-078-083-087-091-200600-
SOUTHEAST ILLINOIS

CITY           SKY/WX    TMP DP  RH WIND       PRES   REMARKS
LAWRENCEVILLE  CLEAR     70  69  97 S3        29.93S
FLORA*         CLEAR     70  68  91 CALM      29.92S
FAIRFIELD*     CLEAR     72  69  90 CALM      29.91S
HARRISBURG*    CLEAR     69  69  98 CALM      29.92S
ROBINSON*      CLEAR     64  64  99 CALM      29.93S FOG
CARMI*         CLEAR     67  67 100 S3        29.92S FOG
$$

ABBREVIATIONS USED IN REMARKS
   TC - TEMPERATURE IN CELSIUS
  WCI - WIND CHILL INDEX
   HX - HEAT INDEX
  VSB - VISIBILITY
$$





USA.gov is the U.S. government's official web portal to all federal, state and local government web resources and services.